When you browse on this site, cookies collect data to enhance your experience and personalize the content and advertising you see.
Visit our Privacy Policy to learn more. By continuing to use the site, you agree to this use of cookies and data.
  • In Deutschland
  • Länderverzeichnis
  • Für 7 Tage
  • Wassertemperatur
  • Wetterkarte
  • Widgets
  • user-avatar
    Anmelden

    Stündliche Wetter Naschawar

    Heute, 7 Dezember, Samstag

    Zeit Temperatur Niederschläge Wind Luftdruck Luftfeuchtigkeit
    00:00 +15°C° 0 mm 1 m/S 734 mmHg 25%
    01:00 +15°C° 0 mm 1 m/S 734 mmHg 25%
    02:00 +14°C° 0 mm 1 m/S 734 mmHg 26%
    03:00 +14°C° 0 mm 1 m/S 734 mmHg 26%
    04:00 +13°C° 0 mm 1 m/S 734 mmHg 26%
    05:00 +13°C° 0 mm 1 m/S 734 mmHg 27%
    06:00 +13°C° 0 mm 1 m/S 734 mmHg 27%
    07:00 +14°C° 0 mm 1 m/S 734 mmHg 27%
    08:00 +14°C° 0 mm 1 m/S 735 mmHg 26%
    09:00 +16°C° 0 mm 1 m/S 735 mmHg 23%
    10:00 +19°C° 0 mm 1 m/S 735 mmHg 19%
    11:00 +21°C° 0 mm 1 m/S 735 mmHg 16%
    12:00 +22°C° 0 mm 1 m/S 734 mmHg 15%
    13:00 +23°C° 0 mm 1 m/S 734 mmHg 14%
    14:00 +23°C° 0 mm 1 m/S 733 mmHg 13%
    15:00 +22°C° 0 mm 1 m/S 733 mmHg 16%
    16:00 +21°C° 0 mm 1 m/S 733 mmHg 19%
    17:00 +19°C° 0 mm 1 m/S 733 mmHg 22%
    18:00 +19°C° 0 mm 1 m/S 733 mmHg 21%
    19:00 +18°C° 0 mm 1 m/S 734 mmHg 21%
    20:00 +18°C° 0 mm 1 m/S 734 mmHg 21%
    21:00 +16°C° 0 mm 1 m/S 734 mmHg 21%
    22:00 +16°C° 0 mm 1 m/S 734 mmHg 21%
    23:00 +15°C° 0 mm 1 m/S 734 mmHg 21%

    Morgen, 8 Dezember, Sonntag

    Zeit Temperatur Niederschläge Wind Luftdruck Luftfeuchtigkeit
    00:00 +15°C° 0 mm 1 m/S 734 mmHg 22%
    01:00 +14°C° 0 mm 1 m/S 733 mmHg 23%
    02:00 +14°C° 0 mm 1 m/S 733 mmHg 23%
    03:00 +13°C° 0 mm 1 m/S 733 mmHg 23%
    04:00 +13°C° 0 mm 1 m/S 733 mmHg 23%
    05:00 +12°C° 0 mm 1 m/S 732 mmHg 23%
    06:00 +13°C° 0 mm 1 m/S 733 mmHg 24%
    07:00 +13°C° 0 mm 1 m/S 733 mmHg 24%
    08:00 +13°C° 0 mm 1 m/S 734 mmHg 24%
    09:00 +15°C° 0 mm 1 m/S 734 mmHg 21%
    10:00 +18°C° 0 mm 1 m/S 734 mmHg 18%
    11:00 +20°C° 0 mm 1 m/S 734 mmHg 14%
    12:00 +21°C° 0 mm 1 m/S 734 mmHg 14%
    13:00 +22°C° 0 mm 1 m/S 733 mmHg 13%
    14:00 +22°C° 0 mm 1 m/S 733 mmHg 12%
    15:00 +21°C° 0 mm 1 m/S 732 mmHg 16%
    16:00 +18°C° 0 mm 0 m/S 732 mmHg 19%
    17:00 +16°C° 0 mm 0 m/S 732 mmHg 22%
    18:00 +16°C° 0 mm 0 m/S 732 mmHg 22%
    19:00 +15°C° 0 mm 0 m/S 733 mmHg 22%
    20:00 +15°C° 0 mm 0 m/S 733 mmHg 22%
    21:00 +14°C° 0 mm 0 m/S 733 mmHg 23%
    22:00 +14°C° 0 mm 0 m/S 733 mmHg 23%
    23:00 +13°C° 0 mm 0 m/S 733 mmHg 23%

    übermorgen, 9 Dezember, Montag

    Zeit Temperatur Niederschläge Wind Luftdruck Luftfeuchtigkeit
    00:00 +13°C° 0 mm 0 m/S 733 mmHg 23%
    01:00 +13°C° 0 mm 0 m/S 733 mmHg 24%
    02:00 +12°C° 0 mm 0 m/S 733 mmHg 24%
    03:00 +12°C° 0 mm 0 m/S 732 mmHg 24%
    04:00 +12°C° 0 mm 0 m/S 732 mmHg 24%
    05:00 +12°C° 0 mm 0 m/S 731 mmHg 24%
    06:00 +12°C° 0 mm 0 m/S 732 mmHg 25%
    07:00 +13°C° 0 mm 0 m/S 732 mmHg 25%
    08:00 +13°C° 0 mm 0 m/S 733 mmHg 25%
    09:00 +15°C° 0 mm 0 m/S 733 mmHg 22%
    10:00 +17°C° 0 mm 0 m/S 733 mmHg 18%
    11:00 +21°C° 0 mm 1 m/S 733 mmHg 15%
    12:00 +21°C° 0 mm 1 m/S 733 mmHg 14%
    13:00 +22°C° 0 mm 1 m/S 732 mmHg 13%
    14:00 +23°C° 0 mm 1 m/S 732 mmHg 13%
    15:00 +19°C° 0 mm 0 m/S 732 mmHg 16%
    16:00 +18°C° 0 mm 0 m/S 732 mmHg 19%
    17:00 +17°C° 0 mm 0 m/S 731 mmHg 22%
    18:00 +16°C° 0 mm 0 m/S 732 mmHg 22%
    19:00 +16°C° 0 mm 0 m/S 732 mmHg 22%
    20:00 +15°C° 0 mm 0 m/S 732 mmHg 22%
    21:00 +14°C° 0 mm 0 m/S 732 mmHg 23%
    22:00 +14°C° 0 mm 0 m/S 732 mmHg 23%
    23:00 +13°C° 0 mm 0 m/S 732 mmHg 23%

    10 Dezember, Dienstag

    Zeit Temperatur Niederschläge Wind Luftdruck Luftfeuchtigkeit
    00:00 +13°C° 0 mm 0 m/S 732 mmHg 24%
    01:00 +14°C° 0 mm 1 m/S 732 mmHg 24%
    02:00 +14°C° 0 mm 1 m/S 732 mmHg 25%
    03:00 +13°C° 0 mm 1 m/S 731 mmHg 25%
    04:00 +12°C° 0 mm 0 m/S 731 mmHg 25%
    05:00 +12°C° 0 mm 0 m/S 731 mmHg 26%
    06:00 +12°C° 0 mm 0 m/S 731 mmHg 26%
    07:00 +12°C° 0 mm 0 m/S 731 mmHg 26%
    08:00 +12°C° 0 mm 0 m/S 731 mmHg 27%
    09:00 +14°C° 0 mm 0 m/S 731 mmHg 23%
    10:00 +19°C° 0 mm 1 m/S 731 mmHg 19%
    11:00 +21°C° 0 mm 1 m/S 731 mmHg 15%
    12:00 +21°C° 0 mm 1 m/S 731 mmHg 14%
    13:00 +22°C° 0 mm 1 m/S 730 mmHg 14%
    14:00 +22°C° 0 mm 1 m/S 729 mmHg 13%
    15:00 +19°C° 0 mm 0 m/S 729 mmHg 16%
    16:00 +18°C° 0 mm 0 m/S 729 mmHg 19%
    17:00 +17°C° 0 mm 0 m/S 728 mmHg 22%
    18:00 +16°C° 0 mm 0 m/S 728 mmHg 22%
    19:00 +16°C° 0 mm 0 m/S 729 mmHg 22%
    20:00 +15°C° 0 mm 0 m/S 729 mmHg 21%
    21:00 +15°C° 0 mm 0 m/S 729 mmHg 22%
    22:00 +15°C° 0 mm 0 m/S 729 mmHg 23%
    23:00 +14°C° 0 mm 0 m/S 729 mmHg 25%

    11 Dezember, Mittwoch

    Zeit Temperatur Niederschläge Wind Luftdruck Luftfeuchtigkeit
    00:00 +14°C° 0 mm 0 m/S 729 mmHg 26%
    01:00 +13°C° 0 mm 0 m/S 729 mmHg 27%
    02:00 +13°C° 0 mm 0 m/S 729 mmHg 28%
    03:00 +12°C° 0 mm 0 m/S 729 mmHg 28%
    04:00 +12°C° 0 mm 0 m/S 728 mmHg 28%
    05:00 +12°C° 0 mm 0 m/S 728 mmHg 29%
    06:00 +12°C° 0 mm 0 m/S 729 mmHg 29%
    07:00 +13°C° 0 mm 0 m/S 729 mmHg 30%
    08:00 +13°C° 0 mm 0 m/S 730 mmHg 31%
    09:00 +15°C° 0 mm 0 m/S 730 mmHg 27%
    10:00 +18°C° 0 mm 1 m/S 730 mmHg 24%
    11:00 +20°C° 0 mm 1 m/S 730 mmHg 20%
    12:00 +21°C° 0 mm 1 m/S 729 mmHg 20%
    13:00 +21°C° 0 mm 1 m/S 729 mmHg 19%
    14:00 +22°C° 0 mm 1 m/S 728 mmHg 19%
    15:00 +21°C° 0 mm 1 m/S 728 mmHg 22%
    16:00 +20°C° 0 mm 1 m/S 728 mmHg 25%
    17:00 +20°C° 0 mm 1 m/S 728 mmHg 28%
    18:00 +20°C° 0 mm 1 m/S 728 mmHg 28%
    19:00 +19°C° 0 mm 1 m/S 728 mmHg 28%
    20:00 +19°C° 0 mm 1 m/S 729 mmHg 29%
    21:00 +19°C° 0 mm 1 m/S 729 mmHg 30%
    22:00 +18°C° 0 mm 1 m/S 729 mmHg 32%
    23:00 +18°C° 0 mm 1 m/S 730 mmHg 34%

    12 Dezember, Donnerstag

    Zeit Temperatur Niederschläge Wind Luftdruck Luftfeuchtigkeit
    00:00 +15°C° 1.2 mm 2 m/S 729 mmHg 48%
    01:00 +14°C° 1.2 mm 2 m/S 729 mmHg 63%
    02:00 +12°C° 1.2 mm 2 m/S 729 mmHg 77%
    03:00 +12°C° 1.8 mm 2 m/S 729 mmHg 80%
    04:00 +12°C° 1.8 mm 1 m/S 729 mmHg 83%
    05:00 +11°C° 1.8 mm 1 m/S 729 mmHg 86%
    06:00 +11°C° 0.7 mm 1 m/S 729 mmHg 87%
    07:00 +11°C° 0.7 mm 1 m/S 729 mmHg 88%
    08:00 +10°C° 0.7 mm 2 m/S 730 mmHg 89%
    09:00 +12°C° 0.4 mm 2 m/S 730 mmHg 88%
    10:00 +12°C° 0.4 mm 2 m/S 730 mmHg 87%
    11:00 +12°C° 0.4 mm 2 m/S 731 mmHg 86%
    12:00 +12°C° 0.5 mm 2 m/S 730 mmHg 87%
    13:00 +12°C° 0.5 mm 2 m/S 730 mmHg 88%
    14:00 +12°C° 0.5 mm 2 m/S 729 mmHg 89%
    15:00 +12°C° 0.5 mm 2 m/S 729 mmHg 89%
    16:00 +12°C° 0.5 mm 2 m/S 729 mmHg 89%
    17:00 +12°C° 0.5 mm 2 m/S 729 mmHg 89%
    18:00 +12°C° 0.4 mm 2 m/S 730 mmHg 89%
    19:00 +12°C° 0.4 mm 2 m/S 730 mmHg 89%
    20:00 +12°C° 0.4 mm 1 m/S 730 mmHg 89%
    21:00 +12°C° 0.3 mm 1 m/S 730 mmHg 89%
    22:00 +12°C° 0.3 mm 1 m/S 730 mmHg 89%
    23:00 +12°C° 0.3 mm 1 m/S 730 mmHg 89%
    Mehr zeigen